Location: McFarlands Corners
(41.4117°N, 81.3382°W)
Time: 17:21:39
(UTC+00:00)

Vanguard 1 Rocket - Pass Details

Date: 25 February 2026
Orbit: 653 x 4214 km, 34.3° (Epoch: 8 March)

Event Time Altitude Azimuth Distance (km) Brightness Sun altitude
Rises 20:01:09 0° 268° (W) 4,275 11.4 30.0°
Reaches altitude 10° 20:03:29 10° 264° (W) 3,601 11.3 29.7°
Maximum altitude 20:13:00 59° 187° (S) 2,511 10.6 28.5°
Drops below altitude 10° 20:31:34 10° 115° (ESE) 6,615 11.6 25.9°
Sets 20:37:46 0° 113° (ESE) 8,030 12.0 25.1°
